Location: Gleizolles
(44.4833°N, 6.7667°E)
Time: 15:23:58
(UTC+00:00)

Vanguard 1 - Pass Details

Date: 01 July 2024
Orbit: 650 x 3826 km, 34.3° (Epoch: 22 July)

Event Time Altitude Azimuth Distance (km) Brightness Sun altitude
Rises 11:02:36 0° 259° (WSW) 5,956 14.0 67.4°
Reaches altitude 10° 11:07:28 10° 253° (WSW) 4,402 13.5 67.7°
Maximum altitude 11:17:10 40° 189° (S) 1,772 12.6 68.2°
Drops below altitude 10° 11:22:55 10° 121° (ESE) 2,614 12.6 68.4°
Sets 11:25:06 0° 113° (ESE) 3,347 13.0 68.4°
